FFT1019 KPHX-KLAS

Flight info

Callsign FFT1019
Flight time 0h 43m
Altitude 28000
Route ZEPER2 RRSTA ELLDA RKSTR4
Aircraft A320/M-SDE3FGHIRWY/LB1

Departure

Time 2026-05-07 20:19
Airport Phoenix Sky Harbor International Airport (KPHX)

Arrival

Time 2026-05-07 21:02
Airport Harry Reid International Airport (KLAS)
Time Latitude Longitude Altitude Speed Heading
2026-05-07 19:37 33.43406 -111.99625 1121 ft 0 kts 292°
2026-05-07 20:09 33.43401 -111.99611 1113 ft 3 kts 282°
2026-05-07 20:10 33.43410 -111.99575 1115 ft 3 kts 189°
2026-05-07 20:10 33.43419 -111.99574 1115 ft 1 kts 180°
2026-05-07 20:10 33.43420 -111.99574 1116 ft 0 kts 180°
2026-05-07 20:16 33.43419 -111.99574 1116 ft 2 kts 180°
2026-05-07 20:16 33.43377 -111.99574 1117 ft 7 kts 180°
2026-05-07 20:16 33.43329 -111.99574 1122 ft 10 kts 178°
2026-05-07 20:16 33.43237 -111.99551 1126 ft 13 kts 161°
2026-05-07 20:17 33.43214 -111.99471 1120 ft 10 kts 89°
2026-05-07 20:17 33.43213 -111.99395 1127 ft 8 kts 92°
2026-05-07 20:17 33.43182 -111.99346 1133 ft 8 kts 158°
2026-05-07 20:17 33.43148 -111.99344 1135 ft 1 kts 183°
2026-05-07 20:18 33.43124 -111.99349 1134 ft 9 kts 197°
2026-05-07 20:18 33.43105 -111.99403 1132 ft 4 kts 269°
2026-05-07 20:18 33.43105 -111.99405 1132 ft 0 kts 269°
2026-05-07 20:18 33.43105 -111.99458 1132 ft 30 kts 270°
2026-05-07 20:19 33.43105 -112.00037 1132 ft 105 kts 270°
2026-05-07 20:19 33.43107 -112.01149 1130 ft 160 kts 270°
2026-05-07 20:19 33.43117 -112.02556 1649 ft 169 kts 270°
2026-05-07 20:19 33.43111 -112.03957 2381 ft 168 kts 271°
2026-05-07 20:20 33.43158 -112.05377 2976 ft 178 kts 273°
2026-05-07 20:20 33.43225 -112.06936 3308 ft 197 kts 273°
2026-05-07 20:20 33.43290 -112.08653 3601 ft 217 kts 272°
2026-05-07 20:20 33.43335 -112.10539 3906 ft 236 kts 271°
2026-05-07 20:21 33.43374 -112.12559 4443 ft 250 kts 271°
2026-05-07 20:21 33.43464 -112.14653 5251 ft 254 kts 281°
2026-05-07 20:21 33.44132 -112.16613 6081 ft 258 kts 307°
2026-05-07 20:21 33.45474 -112.18015 6905 ft 259 kts 335°
2026-05-07 20:22 33.47197 -112.18588 7779 ft 258 kts 353°
2026-05-07 20:22 33.48974 -112.18897 8721 ft 258 kts 353°
2026-05-07 20:22 33.50756 -112.19205 9680 ft 258 kts 353°
2026-05-07 20:22 33.52538 -112.19516 10563 ft 259 kts 353°
2026-05-07 20:23 33.54364 -112.19783 11119 ft 275 kts 356°
2026-05-07 20:23 33.56350 -112.19977 11425 ft 298 kts 358°
2026-05-07 20:23 33.58498 -112.20147 11736 ft 320 kts 358°
2026-05-07 20:23 33.60759 -112.20318 12355 ft 329 kts 358°
2026-05-07 20:24 33.63055 -112.20613 13127 ft 336 kts 350°
2026-05-07 20:24 33.65340 -112.21309 13871 ft 341 kts 348°
2026-05-07 20:24 33.67646 -112.22044 14546 ft 345 kts 348°
2026-05-07 20:24 33.69974 -112.22798 15235 ft 347 kts 347°
2026-05-07 20:25 33.72310 -112.23558 15966 ft 349 kts 348°
2026-05-07 20:25 33.74669 -112.24326 16647 ft 352 kts 348°
2026-05-07 20:25 33.77046 -112.25099 17285 ft 356 kts 348°
2026-05-07 20:25 33.79452 -112.25880 17965 ft 359 kts 349°
2026-05-07 20:26 33.81882 -112.26667 18573 ft 363 kts 349°
2026-05-07 20:26 33.84330 -112.27458 19127 ft 366 kts 349°
2026-05-07 20:26 33.86804 -112.28257 19697 ft 370 kts 349°
2026-05-07 20:26 33.89298 -112.29062 20264 ft 373 kts 349°
2026-05-07 20:27 33.91815 -112.29878 20812 ft 376 kts 349°
2026-05-07 20:27 33.94353 -112.30701 21360 ft 380 kts 349°
2026-05-07 20:27 33.96920 -112.31535 21892 ft 383 kts 349°
2026-05-07 20:27 33.99507 -112.32374 22413 ft 386 kts 349°
2026-05-07 20:28 34.02060 -112.33463 22927 ft 395 kts 339°
2026-05-07 20:28 34.03672 -112.34522 23259 ft 402 kts 332°
2026-05-07 20:28 34.05919 -112.36585 23712 ft 410 kts 324°
2026-05-07 20:28 34.08107 -112.38800 24154 ft 411 kts 325°
2026-05-07 20:29 34.10306 -112.41018 24591 ft 413 kts 325°
2026-05-07 20:29 34.12522 -112.43247 24974 ft 416 kts 325°
2026-05-07 20:29 34.14753 -112.45485 25423 ft 417 kts 325°
2026-05-07 20:29 34.16983 -112.47724 25890 ft 417 kts 324°
2026-05-07 20:30 34.19217 -112.49973 26318 ft 419 kts 324°
2026-05-07 20:30 34.21457 -112.52233 26717 ft 421 kts 324°
2026-05-07 20:30 34.23711 -112.54509 27108 ft 423 kts 324°
2026-05-07 20:30 34.25979 -112.56798 27507 ft 426 kts 324°
2026-05-07 20:31 34.28258 -112.59100 27844 ft 428 kts 324°
2026-05-07 20:31 34.30535 -112.61404 27933 ft 421 kts 324°
2026-05-07 20:31 34.32732 -112.63634 27944 ft 407 kts 324°
2026-05-07 20:31 34.34889 -112.65823 27949 ft 401 kts 324°
2026-05-07 20:32 34.37018 -112.67983 27942 ft 398 kts 324°
2026-05-07 20:32 34.39139 -112.70135 27947 ft 398 kts 324°
2026-05-07 20:32 34.41258 -112.72285 27932 ft 397 kts 324°
2026-05-07 20:32 34.43376 -112.74436 27945 ft 397 kts 324°
2026-05-07 20:33 34.45493 -112.76584 27948 ft 397 kts 325°
2026-05-07 20:33 34.47612 -112.78732 27928 ft 397 kts 324°
2026-05-07 20:33 34.49729 -112.80883 27955 ft 397 kts 324°
2026-05-07 20:33 34.51836 -112.83033 27939 ft 396 kts 324°
2026-05-07 20:34 34.53942 -112.85188 27925 ft 396 kts 324°
2026-05-07 20:34 34.56047 -112.87341 27945 ft 395 kts 324°
2026-05-07 20:34 34.58150 -112.89489 27948 ft 395 kts 324°
2026-05-07 20:34 34.60252 -112.91631 27949 ft 395 kts 324°
2026-05-07 20:35 34.62355 -112.93775 27950 ft 394 kts 324°
2026-05-07 20:35 34.64453 -112.95915 27949 ft 394 kts 324°
2026-05-07 20:35 34.66547 -112.98054 27935 ft 393 kts 324°
2026-05-07 20:35 34.68638 -113.00194 27926 ft 393 kts 324°
2026-05-07 20:36 34.70731 -113.02335 27942 ft 393 kts 324°
2026-05-07 20:36 34.72821 -113.04474 27940 ft 393 kts 324°
2026-05-07 20:36 34.74909 -113.06615 27937 ft 393 kts 323°
2026-05-07 20:36 34.76913 -113.08889 27937 ft 394 kts 320°
2026-05-07 20:37 34.78845 -113.11257 27930 ft 395 kts 318°
2026-05-07 20:37 34.80738 -113.13679 27931 ft 395 kts 317°
2026-05-07 20:37 34.82613 -113.16125 27931 ft 395 kts 317°
2026-05-07 20:37 34.84485 -113.18568 27930 ft 395 kts 317°
2026-05-07 20:38 34.86367 -113.21003 27933 ft 395 kts 317°
2026-05-07 20:38 34.88257 -113.23428 27933 ft 394 kts 317°
2026-05-07 20:38 34.90151 -113.25847 27924 ft 394 kts 317°
2026-05-07 20:38 34.92043 -113.28258 27926 ft 394 kts 318°
2026-05-07 20:39 34.93916 -113.30643 27927 ft 394 kts 318°
2026-05-07 20:39 34.95808 -113.33055 27931 ft 394 kts 318°
2026-05-07 20:39 34.97703 -113.35467 27931 ft 393 kts 318°
2026-05-07 20:39 34.99642 -113.37804 27919 ft 390 kts 324°
2026-05-07 20:40 35.01732 -113.39901 27921 ft 389 kts 324°
2026-05-07 20:40 35.03822 -113.41999 27921 ft 389 kts 324°
2026-05-07 20:40 35.05910 -113.44103 27908 ft 389 kts 324°
2026-05-07 20:40 35.07999 -113.46209 27913 ft 389 kts 324°
2026-05-07 20:41 35.10085 -113.48312 27917 ft 389 kts 324°
2026-05-07 20:41 35.12172 -113.50419 27907 ft 389 kts 324°
2026-05-07 20:41 35.14256 -113.52526 27906 ft 389 kts 324°
2026-05-07 20:41 35.16340 -113.54629 27930 ft 389 kts 324°
2026-05-07 20:42 35.18423 -113.56732 27938 ft 388 kts 324°
2026-05-07 20:42 35.20505 -113.58832 27955 ft 388 kts 324°
2026-05-07 20:42 35.22585 -113.60931 27840 ft 386 kts 324°
2026-05-07 20:42 35.24647 -113.63016 27355 ft 383 kts 324°
2026-05-07 20:43 35.26691 -113.65090 26857 ft 380 kts 324°
2026-05-07 20:43 35.28716 -113.67145 26367 ft 377 kts 324°
2026-05-07 20:43 35.30728 -113.69184 25903 ft 374 kts 324°
2026-05-07 20:43 35.32720 -113.71204 25664 ft 371 kts 323°
2026-05-07 20:44 35.34702 -113.73215 25426 ft 370 kts 323°
2026-05-07 20:44 35.36681 -113.75222 25176 ft 369 kts 323°
2026-05-07 20:44 35.38649 -113.77222 24909 ft 365 kts 323°
2026-05-07 20:44 35.40591 -113.79200 24470 ft 362 kts 323°
2026-05-07 20:45 35.42519 -113.81167 23998 ft 360 kts 323°
2026-05-07 20:45 35.44445 -113.83134 23494 ft 359 kts 323°
2026-05-07 20:45 35.46366 -113.85094 22969 ft 357 kts 323°
2026-05-07 20:45 35.48271 -113.87039 22477 ft 355 kts 323°
2026-05-07 20:46 35.50164 -113.88970 21981 ft 353 kts 323°
2026-05-07 20:46 35.52042 -113.90887 21507 ft 351 kts 323°
2026-05-07 20:46 35.53912 -113.92798 21035 ft 349 kts 323°
2026-05-07 20:46 35.55774 -113.94704 20562 ft 348 kts 323°
2026-05-07 20:47 35.57626 -113.96598 20086 ft 346 kts 323°
2026-05-07 20:47 35.59475 -113.98490 19618 ft 345 kts 323°
2026-05-07 20:47 35.61316 -114.00373 19154 ft 344 kts 323°
2026-05-07 20:47 35.63154 -114.02255 18699 ft 343 kts 322°
2026-05-07 20:48 35.64984 -114.04133 18244 ft 343 kts 322°
2026-05-07 20:48 35.66814 -114.06008 17741 ft 342 kts 322°
2026-05-07 20:48 35.68637 -114.07879 17276 ft 340 kts 322°
2026-05-07 20:48 35.70446 -114.09736 16848 ft 337 kts 322°
2026-05-07 20:49 35.72239 -114.11581 16416 ft 336 kts 322°
2026-05-07 20:49 35.74027 -114.13423 15985 ft 334 kts 322°
2026-05-07 20:49 35.75684 -114.15374 15835 ft 326 kts 311°
2026-05-07 20:49 35.76911 -114.17688 15636 ft 322 kts 301°
2026-05-07 20:50 35.77977 -114.20108 15276 ft 321 kts 301°
2026-05-07 20:50 35.79025 -114.22484 14961 ft 319 kts 301°
2026-05-07 20:50 35.80079 -114.24873 14648 ft 316 kts 301°
2026-05-07 20:50 35.81125 -114.27244 14330 ft 314 kts 301°
2026-05-07 20:51 35.82165 -114.29602 14027 ft 312 kts 301°
2026-05-07 20:51 35.83215 -114.31979 13716 ft 311 kts 301°
2026-05-07 20:51 35.84350 -114.34229 13392 ft 307 kts 310°
2026-05-07 20:51 35.85638 -114.36277 13094 ft 305 kts 310°
2026-05-07 20:52 35.86932 -114.38340 12808 ft 303 kts 310°
2026-05-07 20:52 35.88217 -114.40397 12488 ft 302 kts 309°
2026-05-07 20:52 35.89491 -114.42441 12201 ft 300 kts 309°
2026-05-07 20:52 35.90757 -114.44472 11915 ft 298 kts 309°
2026-05-07 20:53 35.92016 -114.46492 11628 ft 296 kts 309°
2026-05-07 20:53 35.93267 -114.48500 11335 ft 294 kts 309°
2026-05-07 20:53 35.94507 -114.50495 11069 ft 292 kts 309°
2026-05-07 20:53 35.95744 -114.52484 10788 ft 291 kts 309°
2026-05-07 20:54 35.96969 -114.54462 10499 ft 289 kts 309°
2026-05-07 20:54 35.98185 -114.56433 10228 ft 288 kts 309°
2026-05-07 20:54 35.99391 -114.58392 9951 ft 286 kts 309°
2026-05-07 20:54 36.00589 -114.60344 9660 ft 284 kts 309°
2026-05-07 20:55 36.01795 -114.62307 9379 ft 281 kts 309°
2026-05-07 20:55 36.02938 -114.64165 9116 ft 268 kts 309°
2026-05-07 20:55 36.03998 -114.65980 8858 ft 254 kts 302°
2026-05-07 20:55 36.04898 -114.67826 8606 ft 249 kts 302°
2026-05-07 20:56 36.05794 -114.69654 8367 ft 249 kts 303°
2026-05-07 20:56 36.06688 -114.71479 8116 ft 248 kts 300°
2026-05-07 20:56 36.07268 -114.73474 7861 ft 248 kts 280°
2026-05-07 20:56 36.07338 -114.75592 7600 ft 246 kts 271°
2026-05-07 20:57 36.07337 -114.77702 7313 ft 244 kts 271°
2026-05-07 20:57 36.07340 -114.79793 7019 ft 243 kts 271°
2026-05-07 20:57 36.07344 -114.81867 6714 ft 238 kts 271°
2026-05-07 20:57 36.07348 -114.83881 6431 ft 230 kts 271°
2026-05-07 20:58 36.07352 -114.85826 6140 ft 223 kts 271°
2026-05-07 20:58 36.07354 -114.87734 5857 ft 221 kts 271°
2026-05-07 20:58 36.07356 -114.89638 5582 ft 222 kts 271°
2026-05-07 20:58 36.07359 -114.91547 5301 ft 223 kts 270°
2026-05-07 20:59 36.07361 -114.93473 5016 ft 224 kts 270°
2026-05-07 20:59 36.07363 -114.95387 4673 ft 221 kts 270°
2026-05-07 20:59 36.07364 -114.97271 4402 ft 216 kts 270°
2026-05-07 20:59 36.07365 -114.99081 4194 ft 204 kts 270°
2026-05-07 21:00 36.07365 -115.00789 3929 ft 194 kts 270°
2026-05-07 21:00 36.07365 -115.02409 3691 ft 184 kts 270°
2026-05-07 21:00 36.07366 -115.03938 3483 ft 172 kts 270°
2026-05-07 21:00 36.07366 -115.05367 3263 ft 160 kts 270°
2026-05-07 21:01 36.07366 -115.06706 3076 ft 152 kts 270°
2026-05-07 21:01 36.07366 -115.08001 2873 ft 149 kts 270°
2026-05-07 21:01 36.07366 -115.09275 2659 ft 147 kts 270°
2026-05-07 21:01 36.07369 -115.10535 2416 ft 146 kts 269°
2026-05-07 21:02 36.07365 -115.11785 2230 ft 145 kts 270°
2026-05-07 21:02 36.07366 -115.13021 2080 ft 141 kts 271°
2026-05-07 21:02 36.07367 -115.14045 2102 ft 83 kts 269°
2026-05-07 21:02 36.07366 -115.14492 2119 ft 41 kts 270°
2026-05-07 21:03 36.07379 -115.14789 2125 ft 21 kts 282°
2026-05-07 21:03 36.07429 -115.14957 2128 ft 21 kts 298°
2026-05-07 21:03 36.07499 -115.15092 2128 ft 16 kts 311°
2026-05-07 21:03 36.07581 -115.15161 2131 ft 13 kts 335°
2026-05-07 21:04 36.07660 -115.15204 2132 ft 12 kts 335°
2026-05-07 21:04 36.07728 -115.15244 2135 ft 10 kts 334°
2026-05-07 21:04 36.07782 -115.15252 2135 ft 9 kts 19°
2026-05-07 21:04 36.07805 -115.15139 2130 ft 16 kts 91°
2026-05-07 21:05 36.07798 -115.14993 2127 ft 13 kts 95°
2026-05-07 21:05 36.07789 -115.14868 2122 ft 17 kts 94°
2026-05-07 21:05 36.07778 -115.14704 2113 ft 22 kts 95°
2026-05-07 21:05 36.07765 -115.14508 2107 ft 20 kts 94°
2026-05-07 21:06 36.07755 -115.14353 2103 ft 16 kts 94°
2026-05-07 21:06 36.07788 -115.14241 2098 ft 16 kts 17°
2026-05-07 21:06 36.07912 -115.14238 2096 ft 19 kts 359°
2026-05-07 21:06 36.08060 -115.14237 2093 ft 23 kts
2026-05-07 21:07 36.08223 -115.14238 2089 ft 19 kts
2026-05-07 21:07 36.08336 -115.14186 2087 ft 17 kts 45°
2026-05-07 21:07 36.08425 -115.14078 2087 ft 19 kts 44°
2026-05-07 21:07 36.08479 -115.14004 2087 ft 5 kts 33°
2026-05-07 21:08 36.08509 -115.13999 2087 ft 4 kts
2026-05-07 21:08 36.08532 -115.13999 2087 ft 2 kts 360°
2026-05-07 21:08 36.08533 -115.13999 2087 ft 0 kts 360°